Lapse_Rate
6.4 5.8 6.4 6.5 6.7 7.0 7.2 7.2 7.3 7.2 8.3 8.1 8.2 8.1 8.1 8.5 8.4 8.4 8.3 7.9 7.6 7.2 7.3 7.1 7.2 7.1 7.4 7.6 7.2 6.8 6.6 6.4 6.2 6.1 6.2 6.4 6.4 6.5 6.5 6.7 6.9 7.0 7.1 7.2
6.2 6.3 7.2 7.2 7.2 7.3 7.6 7.5 7.5 7.5 7.6 8.0 8.1 8.2 8.2 8.4 8.8 8.8 8.8 8.5 8.2 7.5 6.7 6.8 7.3 7.8 8.0 7.9 7.7 7.1 6.3 6.1 6.1 6.1 6.3 6.4 6.4 6.5 6.8 7.1 7.2 7.2 7.3 7.3
6.7 7.0 7.3 7.5 7.3 7.4 7.4 7.6 7.5 7.6 7.6 7.5 7.7 7.4 7.8 8.0 8.1 8.3 8.5 8.7 8.2 7.8 7.1 7.0 7.4 8.2 8.0 7.3 7.0 6.8 6.4 6.6 6.6 6.6 6.5 6.4 6.5 6.8 7.0 7.1 7.0 7.1 7.1 7.2
7.0 7.4 7.5 7.5 7.8 7.8 7.2 7.7 7.7 7.6 7.5 6.9 7.5 6.8 6.5 7.3 8.1 8.4 8.6 9.2 8.6 8.0 7.0 6.9 7.4 8.4 7.6 7.3 7.5 7.3 7.0 7.2 6.8 6.6 6.7 6.5 6.6 6.9 6.9 6.8 6.9 6.9 7.0 7.0
6.9 7.1 7.4 7.5 7.3 7.4 7.2 7.2 7.4 7.4 7.6 6.8 6.4 7.8 6.7 7.2 8.3 8.4 8.7 8.9 9.2 8.6 8.1 7.7 7.7 7.8 7.6 7.5 7.5 7.4 7.3 6.8 6.6 6.7 6.4 6.5 6.6 6.6 6.6 6.8 6.8 6.8 6.8 6.8
6.9 7.1 7.2 7.3 7.5 7.7 7.5 7.4 7.3 7.2 7.3 6.4 6.6 7.9 6.5 7.5 8.5 8.7 8.9 9.0 8.9 8.8 8.2 7.9 7.9 7.7 7.5 7.7 7.6 7.4 7.2 6.9 6.6 6.5 6.4 6.4 6.4 6.5 6.5 6.6 6.7 6.7 6.8 6.8
6.5 6.3 6.4 7.3 7.4 7.5 7.7 7.7 6.7 6.2 6.2 6.5 7.0 7.6 7.4 7.9 8.2 8.7 9.0 9.0 8.7 8.5 8.4 8.1 8.1 7.9 7.7 7.6 7.6 7.3 7.1 6.8 6.4 6.1 6.1 6.1 6.2 6.4 6.5 6.7 6.8 6.9 6.8 6.9
7.1 6.5 6.8 7.3 8.0 7.8 7.9 8.4 7.7 7.3 6.5 7.0 7.4 7.3 7.7 8.6 8.6 8.5 8.2 8.1 8.2 7.9 8.0 8.3 8.3 7.8 7.7 7.8 7.8 7.4 7.3 7.1 6.5 6.3 6.2 6.3 6.3 6.5 6.7 6.9 7.0 6.9 7.0 7.1
7.7 7.0 6.9 6.7 6.8 7.8 7.5 8.4 9.0 9.1 8.8 8.5 8.3 7.8 7.7 8.5 8.5 7.8 7.7 8.0 7.9 7.9 8.1 8.0 8.1 7.7 7.9 7.8 7.6 7.5 7.6 7.3 6.9 6.6 6.4 6.4 6.5 6.8 7.0 7.1 7.2 7.3 7.3 7.4
7.6 8.0 7.0 6.8 6.8 7.1 8.1 8.3 8.4 9.0 8.4 8.1 8.3 8.6 8.6 8.5 8.3 8.0 7.7 7.4 7.0 7.3 7.3 7.5 7.6 7.9 8.2 7.9 7.8 7.6 7.7 7.6 7.2 6.8 6.6 6.6 6.8 6.8 7.1 7.3 7.3 7.4 7.3 7.3
6.9 7.4 7.3 7.2 6.8 6.9 6.9 7.9 8.5 8.5 8.3 7.6 7.6 8.1 8.6 8.6 8.5 8.0 7.7 6.8 6.4 6.7 7.0 7.4 7.6 7.9 7.8 7.7 7.9 7.8 7.9 7.9 7.5 6.9 6.8 6.9 7.1 7.2 7.5 7.5 7.4 7.3 7.4 7.3
7.1 7.6 7.5 7.2 7.0 7.2 7.8 7.6 7.8 8.2 7.1 6.9 6.5 7.0 8.1 7.9 8.0 7.9 7.8 7.4 7.0 6.8 7.3 7.5 7.5 7.4 7.3 7.7 7.8 7.9 7.9 8.0 7.6 7.2 7.2 7.2 7.4 7.6 7.7 7.6 7.4 7.4 7.4 7.3
6.4 7.0 7.4 7.5 7.5 7.7 8.0 8.1 8.3 7.6 6.6 6.4 6.9 7.0 7.6 7.5 8.0 7.0 7.3 6.6 7.0 6.5 7.2 7.2 7.2 7.2 7.2 7.5 7.8 7.9 8.0 8.1 7.6 7.6 7.6 7.5 7.5 7.6 7.7 7.7 7.6 7.4 7.3 7.1
6.9 6.5 6.9 6.9 7.6 7.8 7.7 8.2 8.4 7.8 6.6 6.7 6.7 6.8 7.6 7.5 6.8 6.8 6.5 6.7 7.1 7.3 7.3 7.4 7.5 7.2 7.2 7.2 7.5 7.8 7.8 7.7 7.4 7.5 7.6 7.6 7.5 7.5 7.8 7.7 7.5 7.4 7.0 6.9
7.2 7.0 7.1 7.0 7.3 7.4 7.5 7.7 7.7 7.7 7.6 6.9 6.8 6.7 6.9 7.2 7.4 7.3 7.4 7.6 7.5 7.4 7.7 7.6 7.7 7.6 7.4 7.3 7.3 7.6 7.8 7.6 7.2 6.9 7.3 7.6 7.5 7.3 7.5 7.5 7.2 7.0 6.8 6.7
7.4 7.2 7.1 7.0 7.5 7.3 7.4 7.6 7.5 7.4 7.6 7.7 7.6 6.8 7.6 7.6 7.6 7.7 7.7 7.9 8.0 7.9 8.0 8.1 7.9 7.6 7.5 7.4 7.1 7.4 7.6 7.5 7.4 7.3 7.3 7.3 7.3 7.2 7.1 7.3 7.0 6.8 6.7 6.7
7.1 7.3 7.2 7.4 6.9 7.1 7.1 7.5 8.1 8.2 8.3 8.1 7.7 7.6 7.8 7.7 7.9 7.8 7.6 7.9 7.9 7.9 7.9 7.8 7.7 7.6 7.7 7.6 7.4 7.6 7.4 7.3 7.2 7.2 7.2 7.1 7.0 7.1 7.1 7.0 6.9 6.7 6.7 6.8
7.1 7.2 7.3 7.2 7.2 7.4 7.9 8.0 8.2 8.5 8.3 8.3 8.0 7.7 8.0 7.9 7.6 7.6 7.8 7.8 7.9 7.8 7.8 7.9 7.9 7.4 7.9 7.6 7.4 7.6 7.4 7.3 7.2 7.2 6.9 6.9 7.0 7.1 7.1 7.0 6.8 6.6 6.8 6.9
7.9 7.6 7.3 7.4 7.6 7.7 7.9 8.3 8.6 8.5 7.8 8.2 8.1 8.2 8.4 8.1 7.8 7.9 8.3 8.1 7.6 7.6 7.6 7.5 7.7 7.7 7.5 7.6 7.7 7.8 7.6 7.4 7.3 7.4 7.2 7.0 7.1 7.1 6.9 6.7 6.7 6.7 6.6 6.9
7.7 7.6 7.1 7.3 7.6 7.5 8.2 8.4 8.3 8.1 7.8 8.3 8.4 8.0 8.2 8.1 8.2 8.2 8.4 8.1 8.1 7.7 7.6 7.2 7.0 7.6 7.7 7.7 7.8 7.8 7.7 7.4 7.4 7.5 7.5 7.3 7.2 7.0 6.7 6.7 6.6 6.6 6.5 6.7
7.7 7.8 7.6 7.1 7.2 7.3 7.7 8.2 8.2 7.9 7.9 8.0 8.2 8.1 8.0 8.2 8.2 8.0 7.9 7.7 7.7 7.3 6.7 6.8 7.4 7.7 7.9 7.7 7.7 7.6 7.4 7.5 7.6 7.6 7.4 7.1 6.9 6.8 6.7 6.5 6.6 6.5 6.6 6.5
7.3 7.9 7.8 7.7 7.6 7.2 7.7 7.8 8.0 8.1 7.5 7.6 7.7 8.1 8.0 7.9 8.0 7.8 7.6 7.2 7.3 7.5 7.0 6.7 7.4 7.8 7.8 7.7 7.5 7.6 7.4 7.4 7.4 7.4 7.1 7.1 7.1 6.9 6.6 6.5 6.5 6.5 6.6 5.7
7.6 7.9 7.7 7.9 7.8 8.1 8.0 7.9 7.9 7.7 7.7 7.6 7.8 7.9 7.7 7.7 7.9 7.8 7.3 6.7 7.1 7.2 7.3 7.4 7.4 7.6 7.5 7.5 7.5 7.2 7.1 7.1 7.2 7.1 6.9 6.4 6.6 6.5 6.4 6.4 6.2 6.3 6.2 5.6
6.7 7.1 7.2 7.6 7.8 7.6 8.0 7.8 7.6 7.7 7.8 7.8 7.7 7.9 7.8 7.5 7.6 7.4 7.3 6.6 6.7 7.0 6.9 7.5 7.4 7.2 7.2 7.2 7.2 7.2 7.1 6.9 6.8 6.8 6.8 6.5 6.4 6.5 6.4 6.3 6.2 6.1 5.6 5.7
7.3 7.0 7.2 7.3 7.4 8.1 7.8 7.9 7.8 7.9 7.8 7.9 7.8 7.8 7.8 7.7 7.6 7.3 7.5 7.1 6.7 6.8 7.1 7.3 7.2 7.2 7.0 7.1 7.2 7.0 6.9 6.9 6.4 6.5 6.6 6.3 6.3 6.2 6.2 6.3 6.3 5.9 5.8 5.8
7.6 7.3 7.3 7.3 7.9 7.9 7.8 7.6 7.7 7.6 7.8 7.6 7.6 7.7 8.0 7.5 7.5 7.5 7.3 7.1 6.8 6.5 6.8 7.1 7.1 7.2 7.0 6.8 7.1 6.8 6.8 6.8 6.5 6.5 6.5 6.3 6.3 6.5 6.3 6.3 6.2 6.1 5.8 5.9
Wind_Speed
7 4 8 11 14 12 9 10 6 7 15 7 12 10 11 8 7 10 12 15 16 19 20 20 18 16 16 15 14 12 9 7 5 3 4 5 4 5 4 10 13 10 10 12
4 11 15 14 13 6 7 9 10 7 10 9 9 15 9 8 8 9 13 15 19 16 20 18 18 19 17 15 14 13 11 9 6 6 4 4 6 4 5 8 11 10 11 9
8 10 10 7 6 7 8 8 9 12 8 7 6 16 10 11 11 11 11 20 23 24 24 21 21 18 17 17 16 14 11 11 4 7 8 6 7 6 4 3 4 6 10 12
5 5 6 7 7 5 14 8 13 12 5 7 4 14 16 11 13 19 20 11 20 22 22 19 20 18 17 14 14 14 12 10 8 9 9 11 5 5 4 4 4 5 11 12
6 7 10 12 11 11 17 9 11 5 6 7 1 5 23 5 12 15 5 9 22 25 25 22 19 17 14 12 9 11 11 8 7 6 7 5 6 6 4 6 7 6 7 11
11 7 6 12 17 12 9 5 8 5 2 11 10 7 21 16 12 2 4 9 22 23 20 18 15 16 13 11 12 10 9 7 7 7 8 9 12 9 7 5 5 4 4 4
9 17 15 15 17 16 11 2 6 4 4 12 16 13 15 13 2 10 11 14 18 20 20 19 19 15 15 14 12 11 12 8 7 6 7 8 9 9 8 7 5 7 4 3
10 23 8 5 11 13 8 15 9 5 5 9 10 8 7 8 14 9 5 10 14 16 17 19 19 16 17 15 14 13 11 9 8 7 7 7 8 5 5 5 5 5 4 4
12 21 23 10 12 7 8 6 7 10 12 8 7 8 9 3 13 10 5 12 12 13 15 16 15 15 16 15 14 13 14 11 8 8 7 7 6 7 7 8 8 5 6 4
9 9 11 8 7 16 5 6 9 4 13 20 6 4 6 4 6 6 7 4 6 7 13 14 13 15 13 14 12 12 14 13 8 8 7 6 7 8 7 7 7 7 6 7
15 5 6 5 5 10 10 8 5 5 3 8 13 6 7 9 8 6 3 7 6 4 7 14 13 15 16 14 14 13 13 11 10 8 7 7 7 7 7 8 7 7 6 7
21 7 11 16 14 13 14 15 10 2 6 2 2 6 5 3 1 4 8 13 11 10 12 11 16 16 15 15 14 13 13 13 9 8 7 7 7 8 8 7 7 7 7 9
8 4 7 9 9 6 10 12 2 2 2 4 4 4 5 3 5 7 9 14 11 8 4 3 10 15 16 15 14 14 14 14 11 9 8 7 6 7 8 8 8 8 8 8
10 4 9 10 7 10 13 14 13 6 2 4 8 10 14 2 7 1 8 16 19 17 13 10 9 14 15 16 16 15 13 14 12 11 10 9 8 7 8 9 9 9 8 9
6 6 9 13 16 17 17 18 18 19 13 10 11 15 19 12 7 16 17 18 17 13 15 17 14 15 17 16 16 16 16 16 14 15 12 10 9 9 9 8 9 9 8 8
2 9 10 20 19 16 18 21 16 18 19 17 17 20 19 14 14 15 12 7 11 9 16 17 15 15 16 17 16 16 16 16 15 14 13 11 11 10 9 9 9 10 10 9
3 3 3 8 9 10 12 17 19 20 20 15 16 19 8 10 10 6 9 10 9 6 7 16 17 17 18 18 18 19 17 16 15 14 13 12 12 11 10 11 11 11 10 9
13 9 4 6 2 8 10 8 13 18 20 13 15 5 9 4 11 10 9 10 12 12 12 3 13 17 17 15 15 16 17 17 16 16 14 13 13 12 11 11 11 11 10 10
18 12 6 5 7 10 14 13 12 3 11 14 10 1 5 2 5 3 6 5 4 9 5 6 5 12 16 17 16 19 17 16 16 16 15 14 14 13 12 11 11 9 9 8
15 14 9 5 5 7 1 4 1 4 6 6 6 5 3 3 4 3 3 4 5 8 9 3 6 12 15 15 16 18 16 16 16 16 15 13 13 12 10 7 7 6 6 6
6 4 14 14 8 6 3 7 3 4 4 12 8 6 5 4 4 3 2 4 3 4 9 2 3 9 12 15 17 16 15 15 15 14 14 13 13 11 9 10 5 6 7 10
9 5 4 2 4 7 2 3 5 5 2 4 8 4 7 8 6 4 4 4 5 3 5 5 4 6 11 14 16 16 15 13 16 16 15 14 12 10 9 9 6 10 11 11
5 3 3 3 3 3 6 6 9 10 7 10 3 3 7 7 5 3 4 4 4 7 5 6 6 8 9 12 14 14 14 16 16 15 14 13 12 10 8 9 10 8 10 9
7 9 3 3 7 6 7 7 5 8 4 4 3 4 7 7 7 6 5 3 1 4 7 9 10 9 9 9 12 14 14 14 15 14 14 11 11 8 8 8 8 8 7 7
11 7 5 3 16 6 3 4 3 5 6 3 2 3 6 7 6 5 5 3 2 5 2 11 11 8 7 12 13 14 14 14 13 13 12 12 9 10 8 7 7 7 6 9
3 1 2 4 4 1 4 5 5 3 2 3 5 6 5 7 8 6 5 4 5 6 9 9 10 10 8 10 13 14 14 15 14 12 10 9 8 8 7 6 5 10 13 15
Wind_Direction
262 274 253 231 239 236 282 291 298 301 307 315 288 270 275 271 220 203 186 173 162 158 153 142 141 127 125 124 125 125 130 146 140 138 134 121 124 108 88 91 92 80 69 69
270 242 247 254 262 283 305 302 285 271 261 283 295 289 266 271 255 207 200 186 171 150 152 147 132 132 134 137 138 142 152 173 180 165 159 138 135 114 118 110 105 99 83 86
230 250 274 261 251 273 277 275 288 275 287 281 292 287 286 276 260 253 244 189 178 157 153 145 141 143 143 148 148 152 163 188 168 129 118 110 110 113 108 105 100 97 91 82
262 299 345 327 306 306 282 268 283 293 318 279 52 297 276 277 283 282 246 199 173 151 146 143 143 147 149 151 149 153 164 138 148 134 131 146 140 149 148 147 126 110 96 83
254 310 325 307 275 263 270 297 300 285 307 313 182 276 282 298 272 271 210 140 151 151 150 151 149 147 146 143 133 127 129 128 112 150 141 129 124 123 133 129 122 108 93 89
279 281 275 259 278 269 279 315 305 292 250 274 286 223 280 277 254 21 99 108 142 146 143 145 142 138 136 131 130 125 116 107 100 102 122 130 134 141 133 134 136 134 110 89
279 267 265 269 266 263 239 208 279 283 205 252 278 261 249 305 301 142 144 131 142 148 147 148 148 146 147 142 136 125 125 126 127 118 126 136 140 137 146 149 143 130 112 93
292 300 211 303 306 306 260 220 216 228 244 262 271 269 275 131 142 132 76 113 139 150 155 154 157 150 151 144 139 134 137 133 143 149 146 132 132 139 135 135 125 120 121 118
278 269 293 265 290 293 305 240 225 262 269 277 252 290 293 44 69 30 144 144 148 142 154 154 152 149 149 149 151 147 144 146 153 154 146 147 137 122 121 115 116 121 118 117
272 276 285 311 314 294 251 286 298 295 265 260 239 255 251 106 98 71 68 66 148 134 134 148 152 151 150 152 156 146 148 152 150 145 144 143 134 128 121 116 116 116 123 110
313 248 281 325 267 280 306 312 333 316 289 276 265 260 222 169 171 209 55 23 326 110 155 155 163 160 153 153 160 152 145 141 143 144 146 134 134 122 113 119 120 120 120 120
299 265 275 265 278 291 287 282 287 211 278 270 280 259 326 59 259 18 183 202 210 192 178 168 167 158 157 157 162 149 145 144 147 145 139 137 130 123 122 119 119 118 114 103
336 288 298 284 303 264 253 269 100 157 249 225 263 246 36 111 11 77 1 340 317 329 240 152 145 157 162 161 159 148 149 149 147 139 135 121 110 118 122 119 108 100 97 90
304 251 240 248 261 300 291 281 277 259 220 272 250 285 294 231 217 309 204 220 243 213 224 183 156 168 167 162 159 152 151 149 139 135 135 125 123 126 129 123 116 110 109 108
247 242 240 261 264 271 269 276 278 274 263 223 275 273 280 268 258 194 214 220 232 248 189 186 172 171 170 163 161 155 155 156 150 143 146 141 135 138 134 130 122 121 119 120
79 269 256 256 253 260 272 266 270 268 263 258 251 247 258 282 272 278 273 241 238 231 186 188 176 171 170 169 163 156 159 161 149 144 148 147 143 149 148 144 143 140 136 143
236 218 236 261 226 249 256 257 246 256 257 249 253 262 269 272 269 329 1 15 2 332 172 190 182 174 177 178 165 163 159 155 150 147 149 154 155 162 166 157 154 150 154 157
250 234 255 274 230 254 231 203 222 233 249 254 253 281 294 357 94 68 42 25 1 10 5 307 186 179 182 168 155 152 155 158 155 150 158 164 164 165 170 162 163 159 164 173
222 226 243 243 243 294 290 283 275 243 260 266 254 169 50 350 160 100 60 40 8 358 339 329 332 166 163 166 150 153 157 158 157 157 161 171 161 163 167 170 159 166 171 176
220 222 219 230 251 249 352 8 352 107 301 243 161 123 137 38 54 289 32 22 7 16 348 12 313 145 146 153 148 153 156 159 163 162 163 160 155 159 150 138 163 163 160 145
295 215 228 228 227 272 46 355 4 135 262 336 76 112 145 100 183 247 201 251 302 79 288 48 70 130 142 142 145 151 155 163 162 150 141 137 136 137 147 190 155 140 114 110
284 260 233 201 232 240 183 38 142 185 234 348 275 120 122 140 158 124 147 247 284 328 165 115 93 116 136 140 144 152 156 145 140 140 141 144 142 165 185 152 120 123 124 121
285 327 239 189 247 229 192 187 212 188 194 206 208 222 160 151 146 159 144 55 297 271 191 138 126 111 130 144 150 146 147 142 142 142 144 149 167 163 156 133 129 133 136 137
281 351 289 346 343 223 197 240 204 209 206 171 178 245 178 172 173 207 165 136 37 10 205 139 128 123 144 142 140 140 143 143 143 144 148 157 151 143 146 132 144 141 144 145
275 293 262 298 256 303 36 349 357 350 341 340 16 147 203 190 217 198 165 186 209 127 210 145 148 141 144 142 141 146 145 144 145 148 154 154 159 159 149 140 147 150 160 163
245 255 259 251 288 207 245 255 263 231 294 227 241 268 184 186 210 173 181 229 188 169 154 156 143 141 143 128 143 149 148 149 153 157 157 158 150 150 143 128 87 158 166 175